User: anonymous
Location: NJAA Observatory
(40.6819°N, 74.8979°W)
Time: 11:20:20
(UTC-04:00)
Language:

Cosmos 1328 Rocket - Orbit

View from above orbital plane
View from above orbital plane
View from above satellite
View from above satellite

Ground track
Ground track

The orbit data is extracted from the following two-line orbital elements,

1 12988U 81117B   14234.77045594  .00000228  00000-0  24359-4 0  1273
2 12988 082.5269 318.6396 0018096 012.7496 136.9113 14.84090355767093
Epoch (UTC): 22 August 2014 18:29:27
Eccentricity: 0.0018096
inclination: 82.5269°
perigee height: 604 km
apogee height: 629 km
right ascension of ascending node: 318.6396°
argument of perigee: 12.7496°
revolutions per day: 14.84090355
mean anomaly at epoch: 136.9113°
orbit number at epoch: 76709

The dashed part of the orbit path shows where the satellite is in the earth's shadow,  

DLR